When you browse on this site, cookies collect data to enhance your experience and personalize the content and advertising you see.
Visit our Privacy Policy to learn more. By continuing to use the site, you agree to this use of cookies and data.
  • en Suisse
  • Liste des pays
  • À 7 jours
  • Température de l'eau
  • Carte satellitaire
  • Carte météo
  • Widgets météo
  • user-avatar
    Se connecter

    Météo par heure à Plavni

    Ce jour, 19 Février, Mardi

    Heure Température Précipitation Vent Pression Humidité
    00:00 +7°C° 0 mm 1 m/s 767 mmHg 75%
    01:00 +7°C° 0 mm 1 m/s 767 mmHg 76%
    02:00 +6°C° 0 mm 1 m/s 767 mmHg 77%
    03:00 +6°C° 0 mm 1 m/s 767 mmHg 78%
    04:00 +6°C° 0 mm 1 m/s 767 mmHg 79%
    05:00 +4°C° 0 mm 2 m/s 767 mmHg 80%
    06:00 +4°C° 0 mm 2 m/s 767 mmHg 81%
    07:00 +4°C° 0 mm 2 m/s 767 mmHg 82%
    08:00 +5°C° 0 mm 2 m/s 767 mmHg 82%
    09:00 +5°C° 0 mm 3 m/s 767 mmHg 76%
    10:00 +8°C° 0 mm 3 m/s 767 mmHg 69%
    11:00 +10°C° 0 mm 4 m/s 766 mmHg 63%
    12:00 +11°C° 0 mm 4 m/s 766 mmHg 60%
    13:00 +11°C° 0 mm 4 m/s 766 mmHg 58%
    14:00 +12°C° 0 mm 4 m/s 765 mmHg 55%
    15:00 +12°C° 0 mm 5 m/s 765 mmHg 57%
    16:00 +10°C° 0 mm 5 m/s 765 mmHg 60%
    17:00 +9°C° 0 mm 5 m/s 764 mmHg 62%
    18:00 +8°C° 0 mm 5 m/s 764 mmHg 67%
    19:00 +7°C° 0 mm 5 m/s 764 mmHg 71%
    20:00 +6°C° 0 mm 5 m/s 764 mmHg 76%
    21:00 +6°C° 0 mm 5 m/s 764 mmHg 77%
    22:00 +6°C° 0 mm 5 m/s 763 mmHg 79%
    23:00 +5°C° 0 mm 4 m/s 763 mmHg 81%

    Demain, 20 Février, Mercredi

    Heure Température Précipitation Vent Pression Humidité
    00:00 +5°C° 0 mm 4 m/s 763 mmHg 82%
    01:00 +5°C° 0 mm 4 m/s 763 mmHg 84%
    02:00 +4°C° 0 mm 4 m/s 762 mmHg 86%
    03:00 +4°C° 0 mm 4 m/s 762 mmHg 88%
    04:00 +4°C° 0 mm 4 m/s 762 mmHg 90%
    05:00 +4°C° 0 mm 3 m/s 761 mmHg 92%
    06:00 +4°C° 0 mm 3 m/s 761 mmHg 91%
    07:00 +4°C° 0 mm 3 m/s 761 mmHg 91%
    08:00 +4°C° 0 mm 3 m/s 761 mmHg 91%
    09:00 +7°C° 0 mm 3 m/s 761 mmHg 79%
    10:00 +9°C° 0 mm 3 m/s 761 mmHg 68%
    11:00 +11°C° 0 mm 3 m/s 761 mmHg 57%
    12:00 +12°C° 0 mm 3 m/s 761 mmHg 50%
    13:00 +13°C° 0 mm 4 m/s 760 mmHg 44%
    14:00 +14°C° 0 mm 4 m/s 760 mmHg 37%
    15:00 +13°C° 0 mm 4 m/s 760 mmHg 39%
    16:00 +13°C° 0 mm 3 m/s 760 mmHg 40%
    17:00 +13°C° 0 mm 3 m/s 760 mmHg 42%
    18:00 +11°C° 0 mm 3 m/s 761 mmHg 48%
    19:00 +10°C° 0 mm 4 m/s 762 mmHg 54%
    20:00 +8°C° 0 mm 4 m/s 762 mmHg 59%
    21:00 +7°C° 0 mm 4 m/s 763 mmHg 63%
    22:00 +7°C° 0 mm 4 m/s 763 mmHg 67%
    23:00 +7°C° 0 mm 3 m/s 763 mmHg 71%

    Après-demain, 21 Février, Jeudi

    Heure Température Précipitation Vent Pression Humidité
    00:00 +7°C° 0 mm 3 m/s 764 mmHg 71%
    01:00 +5°C° 0 mm 3 m/s 764 mmHg 72%
    02:00 +5°C° 0 mm 3 m/s 765 mmHg 72%
    03:00 +5°C° 0 mm 3 m/s 765 mmHg 73%
    04:00 +4°C° 0 mm 3 m/s 765 mmHg 74%
    05:00 +5°C° 0 mm 2 m/s 765 mmHg 74%
    06:00 +4°C° 0 mm 3 m/s 765 mmHg 74%
    07:00 +4°C° 0 mm 3 m/s 766 mmHg 73%
    08:00 +4°C° 0 mm 3 m/s 766 mmHg 72%
    09:00 +7°C° 0 mm 3 m/s 766 mmHg 64%
    10:00 +7°C° 0 mm 4 m/s 766 mmHg 55%
    11:00 +10°C° 0 mm 4 m/s 766 mmHg 46%
    12:00 +10°C° 0 mm 4 m/s 766 mmHg 43%
    13:00 +10°C° 0 mm 5 m/s 766 mmHg 40%
    14:00 +12°C° 0 mm 5 m/s 765 mmHg 37%
    15:00 +11°C° 0 mm 4 m/s 765 mmHg 38%
    16:00 +11°C° 0 mm 4 m/s 765 mmHg 39%
    17:00 +11°C° 0 mm 3 m/s 765 mmHg 40%
    18:00 +10°C° 0 mm 3 m/s 765 mmHg 44%
    19:00 +9°C° 0 mm 3 m/s 765 mmHg 47%
    20:00 +9°C° 0 mm 2 m/s 765 mmHg 51%
    21:00 +8°C° 0 mm 2 m/s 765 mmHg 53%
    22:00 +7°C° 0 mm 2 m/s 765 mmHg 55%
    23:00 +7°C° 0 mm 2 m/s 765 mmHg 58%

    22 Février, Vendredi

    Heure Température Précipitation Vent Pression Humidité
    00:00 +7°C° 0 mm 2 m/s 764 mmHg 58%
    01:00 +6°C° 0 mm 2 m/s 764 mmHg 59%
    02:00 +6°C° 0 mm 2 m/s 764 mmHg 59%
    03:00 +6°C° 0 mm 2 m/s 763 mmHg 60%
    04:00 +5°C° 0 mm 2 m/s 762 mmHg 61%
    05:00 +6°C° 0 mm 1 m/s 762 mmHg 62%
    06:00 +6°C° 0.1 mm 1 m/s 761 mmHg 64%
    07:00 +7°C° 0.1 mm 1 m/s 761 mmHg 66%
    08:00 +7°C° 0.1 mm 1 m/s 761 mmHg 68%
    09:00 +7°C° 0.5 mm 1 m/s 760 mmHg 70%
    10:00 +6°C° 0.5 mm 2 m/s 760 mmHg 72%
    11:00 +6°C° 0.5 mm 2 m/s 760 mmHg 73%
    12:00 +7°C° 0.4 mm 3 m/s 760 mmHg 73%
    13:00 +7°C° 0.4 mm 3 m/s 759 mmHg 72%
    14:00 +6°C° 0.4 mm 4 m/s 759 mmHg 72%
    15:00 +4°C° 0.4 mm 6 m/s 760 mmHg 74%
    16:00 +1°C° 0.4 mm 9 m/s 761 mmHg 76%
    17:00 -2°C° 0.4 mm 11 m/s 762 mmHg 79%
    18:00 -3°C° 0.1 mm 11 m/s 763 mmHg 75%
    19:00 -4°C° 0.1 mm 10 m/s 764 mmHg 71%
    20:00 -5°C° 0.1 mm 10 m/s 766 mmHg 68%
    21:00 -7°C° 0 mm 10 m/s 767 mmHg 63%
    22:00 -8°C° 0 mm 10 m/s 767 mmHg 58%
    23:00 -9°C° 0 mm 10 m/s 768 mmHg 54%

    23 Février, Samedi

    Heure Température Précipitation Vent Pression Humidité
    00:00 -9°C° 0 mm 9 m/s 769 mmHg 53%
    01:00 -9°C° 0 mm 9 m/s 769 mmHg 53%
    02:00 -10°C° 0 mm 9 m/s 769 mmHg 52%
    03:00 -10°C° 0 mm 8 m/s 769 mmHg 51%
    04:00 -10°C° 0 mm 8 m/s 770 mmHg 51%
    05:00 -9°C° 0 mm 7 m/s 770 mmHg 50%
    06:00 -8°C° 0 mm 7 m/s 770 mmHg 48%
    07:00 -8°C° 0 mm 7 m/s 770 mmHg 47%
    08:00 -8°C° 0 mm 7 m/s 771 mmHg 46%
    09:00 -7°C° 0 mm 7 m/s 771 mmHg 43%
    10:00 -7°C° 0 mm 7 m/s 771 mmHg 40%
    11:00 -6°C° 0 mm 7 m/s 771 mmHg 38%
    12:00 -6°C° 0 mm 7 m/s 771 mmHg 38%
    13:00 -4°C° 0 mm 7 m/s 771 mmHg 37%
    14:00 -4°C° 0 mm 7 m/s 771 mmHg 37%
    15:00 -4°C° 0 mm 7 m/s 771 mmHg 40%
    16:00 -6°C° 0 mm 7 m/s 771 mmHg 42%
    17:00 -5°C° 0 mm 6 m/s 771 mmHg 45%
    18:00 -6°C° 0 mm 5 m/s 771 mmHg 47%
    19:00 -6°C° 0 mm 5 m/s 771 mmHg 49%
    20:00 -7°C° 0 mm 4 m/s 772 mmHg 52%
    21:00 -7°C° 0 mm 4 m/s 772 mmHg 53%
    22:00 -7°C° 0 mm 4 m/s 772 mmHg 54%
    23:00 -7°C° 0 mm 4 m/s 772 mmHg 55%

    24 Février, Dimanche

    Heure Température Précipitation Vent Pression Humidité
    00:00 -7°C° 0 mm 4 m/s 772 mmHg 55%
    01:00 -7°C° 0 mm 4 m/s 771 mmHg 55%
    02:00 -7°C° 0 mm 5 m/s 771 mmHg 54%
    03:00 -7°C° 0 mm 5 m/s 771 mmHg 55%
    04:00 -7°C° 0 mm 5 m/s 771 mmHg 56%
    05:00 -8°C° 0 mm 5 m/s 771 mmHg 56%
    06:00 -7°C° 0 mm 5 m/s 771 mmHg 57%
    07:00 -8°C° 0 mm 6 m/s 771 mmHg 57%
    08:00 -8°C° 0 mm 6 m/s 772 mmHg 58%
    09:00 -8°C° 0 mm 6 m/s 772 mmHg 55%
    10:00 -7°C° 0 mm 7 m/s 772 mmHg 52%
    11:00 -7°C° 0 mm 7 m/s 772 mmHg 50%
    12:00 -6°C° 0 mm 7 m/s 772 mmHg 49%
    13:00 -6°C° 0 mm 7 m/s 771 mmHg 48%
    14:00 -6°C° 0 mm 7 m/s 771 mmHg 47%
    15:00 -6°C° 0 mm 7 m/s 771 mmHg 49%
    16:00 -6°C° 0 mm 7 m/s 771 mmHg 51%
    17:00 -6°C° 0 mm 7 m/s 771 mmHg 53%
    18:00 -6°C° 0 mm 7 m/s 772 mmHg 54%
    19:00 -7°C° 0 mm 7 m/s 772 mmHg 56%
    20:00 -7°C° 0 mm 7 m/s 772 mmHg 57%
    21:00 -7°C° 0 mm 7 m/s 772 mmHg 58%
    22:00 -7°C° 0 mm 7 m/s 772 mmHg 59%
    23:00 -7°C° 0 mm 7 m/s 772 mmHg 60%
    Voir plus